Find Starlink 30939

NORAD ID: 58393 Int'l Des: 2023-178 Owner: SPXS Country: US Constellation: starlink operational
LEOCIRCULAR

Current View

Loading 3D Globe...

About Starlink 30939

Starlink 30939 (NORAD 58393) is a starlink constellation satellite (v2 mini) launched Nov 20, 2023 by SPXS of US. It operates in LEO, CIRCULAR orbit with a mass of 730.00 kg.

About Starlink 30939

Description loading...

Upcoming Passes

Passes for default location (London). Set your location on the main map for personalized predictions.

Altitude History

Loading altitude history...

Two-Line Element Set

1 58393U 23178V 26177.80943043 .00001676 00000-0 60776-4 0 9993
2 58393 53.1580 212.4156 0001470 90.6276 269.4895 15.34380379146495
Epoch: Jun 26, 2026 • Age: 10 hours

Current Status

Altitude 465.9 km
Velocity 7.63 km/s
Sub-Earth Point -10.76°S, 38.54°E
Launch Date Nov 20, 2023
Age 2.5 years
Type internet

Technical Details

Classification Payload
Mass 730.00 kg
Dry Mass 700.00 kg
Total Mass 730.00 kg
Length 0.30 m
Diameter 4.10 m
Span 29.00 m
Shape Box + pan
Manufacturer SPXS
Bus Type Starlink V2M
Phase Status In Orbit
Owner/State SPXS/US

Most Searched